Etusivu
METAR-TAF:

METAR-TAF

Lentoasemat :

Nebraska City Municipal Airport

Nebraska City, Nebraska, Yhdysvallat

Leveyspiiri: 40-36N, Pituuspiiri: 095-51W, korkeus merenpinnasta: 354 m

Tämänhetkinen sää

Tämä raportti tehtiin 27 minuuttia sitten, kello 05.55 UTC
Tuuli 11 kn etelästä/lounaasta
Lämpötila 9°C
Kosteus 53%
Ilmanpaine 1021 hPa
Näkyvyys: 16.1 km
selkeää

METAR: KAFK 070555Z AUTO 21011KT 10SM CLR 09/00 A3016 RMK AO2 T00890001 10164 20089 402061002

Aika: 00:22 (06:22 UTC)


TAF: puuttuu

Säähavainnot ja -ennusteet yli 4000 lentoasemalta (METAR- ja TAF-raportit).

Käytössä olevat sääasemat on merkitty karttaan keltaisilla ja punaisilla pisteillä.

Aseta hiiri pisteen päälle nähdäksesi sääaseman nimen.

Klikkaa sitten nähdäksesi säähavainnot ja -ennusteet.

Kartan vaihtaminen: klikkaa mustalla rastilla varustettuja vihreitä pisteitä, niin voit zoomata sisään; viivalla varustettua vihreää pistettä, niin voit zoomata ulos tai vihreitä nuolia, niin pääset viereisille kartoille.


METAR-TAF: